sat.trackr.live / text

‹ back to catalog

TIANQI-23

NORAD 57794 · 2023-135C

PAYLOAD ACTIVE UNKNOWN

§ Identity

Operator
Country
PRC
Launch date
2023-09-05
Launch site
SEAL
Launch vehicle
Mass (kg)
RCS (m²)

External: N2YO · Heavens-Above · Gunter

§ Orbital elements

Epoch: 2026-05-25T02:44:25.723968Z

Period
101.18 min
Inclination
49.9725°
Eccentricity
0.0014387
Mean motion
14.23145189 rev/d
Perigee alt
804.4 km
Apogee alt
825.1 km
Semi-major
7,192.9 km
B*
2.2310e-4
RAAN
249.6142°
Arg perigee
179.2207°
Mean anomaly
180.8730°
Rev number
14,134

§ Raw data

TIANQI-231 57794U 23135C   26145.11418662  .00000349  00000+0  22310-3 0  99992 57794  49.9725 249.6142 0014387 179.2207 180.8730 14.23145189141347

JSON: /api/v1/satellites/57794 · /tle

For live sub-satellite position, see the globe view (requires WebGL).

§ Visibility from observer

Set your observer location to see the next 7 days of passes ≥ 10°. The values pass through the URL so the page stays shareable.

No JS? Fill the form by hand. The geolocation button needs JavaScript.

§ Radio — SatNOGS DB

ModeDescriptionDownlinkUplink
LoRa LoRa 400.450 MHz
LoRa LoRa telemetry 400.265 MHz

2 transmitters · refreshed weekly from db.satnogs.org